Wind_Speed
14 14 14 15 16 16 17 18 18 18 19 20 21 22 22 21 18 4 3 4 5 10 12 12 5 8 3 3 1 3 4 3 2 3 4 6 9 5 9 12 4 6 11 18 33
15 16 16 16 17 17 18 18 19 20 19 20 22 22 21 22 8 7 5 7 9 6 4 7 6 11 3 2 2 4 3 8 5 1 5 10 16 8 6 9 6 12 17 28 32
17 17 17 17 18 19 20 20 20 20 20 20 21 21 21 13 2 4 4 3 1 1 2 7 8 2 2 2 4 5 5 6 7 14 9 8 10 3 15 0 14 22 21 20 25
19 18 18 19 19 21 21 22 20 20 20 20 20 19 17 3 2 2 2 2 1 1 5 4 3 1 4 5 6 4 8 7 7 8 8 8 4 6 3 7 17 22 22 15 17
19 19 19 20 21 22 22 22 20 20 19 19 17 17 5 4 5 3 0 2 2 5 3 1 4 3 4 6 4 4 4 6 7 5 5 10 7 7 2 14 16 18 16 16 15
20 20 20 21 23 24 24 22 21 20 19 17 15 14 2 2 4 2 3 3 4 5 6 5 3 3 4 3 3 5 3 4 4 2 2 6 4 9 7 17 19 20 17 15 17
20 21 21 22 24 25 25 23 22 20 18 15 12 10 1 9 4 3 5 3 6 8 5 11 7 7 6 7 6 4 3 7 9 1 3 11 4 8 17 19 20 19 18 15 18
21 21 22 23 25 26 25 23 22 20 16 13 12 3 5 3 8 9 3 8 9 11 9 12 12 4 2 4 9 6 5 2 9 3 6 4 6 2 18 20 19 18 17 15 14
21 22 22 22 24 27 26 24 23 17 11 9 3 4 8 7 9 12 11 10 8 11 6 11 3 2 6 3 6 6 5 6 10 12 6 4 4 5 14 18 18 17 16 13 12
22 23 22 23 23 27 26 26 13 5 1 1 2 3 6 4 7 8 14 13 4 3 5 0 4 3 4 5 3 5 5 3 5 3 5 2 5 5 11 17 18 15 11 11 13
23 24 23 23 22 24 26 7 6 5 1 6 4 5 7 9 6 6 14 2 2 4 2 2 3 6 9 7 8 6 1 5 3 4 4 5 4 8 8 7 10 11 11 12 13
22 24 24 23 21 19 12 3 4 4 7 9 13 11 22 14 5 3 11 4 2 4 2 5 6 11 6 8 6 3 3 6 4 4 1 4 5 6 9 13 16 14 13 12 7
22 24 24 23 18 4 11 10 21 17 1 8 7 6 6 8 8 7 9 5 2 3 6 6 10 3 6 4 3 4 3 4 8 2 4 4 8 7 4 3 11 10 11 13 15
22 23 24 26 4 13 7 23 18 8 4 8 6 8 5 6 6 11 14 6 4 8 4 6 10 8 8 2 4 2 2 3 4 5 1 4 4 6 9 6 13 8 12 13 10
22 22 21 18 14 6 13 20 17 3 2 4 4 6 9 9 2 5 13 3 6 9 4 7 6 4 3 5 4 8 1 4 3 4 5 9 4 7 6 7 2 6 12 9 9
22 22 21 9 11 7 19 16 4 5 5 5 5 7 7 5 6 3 4 5 4 3 2 11 4 4 7 3 2 1 5 8 6 4 4 5 4 5 1 4 5 3 4 7 10
24 21 19 14 4 12 15 4 5 3 5 4 2 7 10 8 9 5 3 7 5 2 4 7 5 5 3 3 7 5 8 4 4 4 5 1 2 8 5 7 9 9 9 10 13
24 17 10 16 8 5 6 5 3 6 6 5 4 1 6 6 7 7 6 8 4 5 2 3 7 5 2 7 7 4 8 6 4 3 5 5 3 5 5 8 1 7 10 12 11
21 9 7 6 9 6 5 3 7 6 2 7 9 5 7 5 5 7 8 7 10 8 7 4 6 3 6 5 9 2 3 6 5 1 3 3 3 5 9 14 16 13 4 9 10
18 8 5 2 12 6 4 6 5 3 6 5 2 4 3 9 6 7 8 7 7 12 8 6 4 5 8 7 3 8 4 2 3 1 2 5 2 3 6 3 9 10 10 12 12
6 4 3 11 12 5 4 7 5 7 8 6 4 4 3 2 4 6 9 6 12 10 10 7 4 11 3 1 7 1 2 6 5 5 5 2 5 6 6 3 5 6 8 7 5
6 2 14 21 3 1 2 4 7 7 5 6 5 3 3 2 3 4 8 10 10 8 9 10 6 4 6 5 2 4 6 6 5 5 2 5 4 7 5 6 5 5 9 6 4
3 3 7 8 1 2 5 5 4 4 7 5 5 5 2 2 3 3 5 7 3 7 9 7 2 1 7 7 7 2 3 5 5 3 4 5 4 3 5 7 8 11 10 9 9
1 3 4 4 1 1 4 5 5 6 13 7 6 2 5 5 4 4 6 3 5 4 4 7 4 8 7 6 4 2 7 3 6 3 3 6 7 7 9 9 5 7 9 6 7
1 2 1 2 4 4 5 5 5 4 4 4 1 3 2 2 5 6 5 7 6 11 5 4 4 3 5 4 2 1 5 9 4 6 6 5 13 20 12 2 5 11 13 12 9
2 3 4 4 5 5 6 4 10 8 2 6 2 4 8 5 3 3 5 5 1 7 5 6 1 2 6 6 7 4 7 5 5 3 4 5 5 10 7 3 3 4 7 7 6
7 6 3 5 6 6 4 9 11 5 5 1 3 6 6 1 4 5 4 3 2 2 5 3 3 3 3 3 6 6 3 2 6 3 2 3 5 11 9 8 8 10 9 4 6
Wind_Direction
10 6 0 355 353 350 348 348 348 349 347 344 340 340 338 333 333 304 251 247 283 301 312 318 349 351 220 245 87 155 77 97 223 307 287 155 114 30 92 129 188 181 137 141 141
5 1 357 351 347 346 345 344 344 344 346 342 339 341 337 334 337 272 256 273 280 294 318 352 345 353 3 155 177 86 92 221 209 102 213 154 126 142 106 107 86 96 119 129 140
359 356 353 347 345 342 342 340 342 344 343 340 338 341 335 337 352 254 281 279 325 297 283 313 304 256 344 281 182 166 181 206 264 247 197 154 148 91 124 70 156 143 147 145 144
357 353 347 344 342 340 338 336 339 339 339 340 339 341 338 6 124 301 311 56 84 250 319 333 347 284 217 233 209 200 203 169 244 182 121 159 111 130 201 188 161 148 151 149 154
354 350 345 341 338 336 334 331 332 334 336 337 341 342 341 11 257 247 101 153 224 305 295 301 308 353 332 309 67 270 310 213 264 139 148 135 198 159 201 131 146 143 151 153 165
351 345 341 339 336 335 331 327 327 327 330 331 340 342 23 307 204 203 201 230 260 297 284 313 259 259 264 272 146 256 340 302 345 227 248 112 139 124 120 139 152 156 165 161 172
349 343 340 337 334 331 326 321 320 319 322 322 332 347 282 237 200 158 214 233 295 278 318 324 350 52 334 320 333 312 6 344 307 75 148 114 86 172 155 155 160 171 173 172 179
348 343 339 335 332 327 321 316 314 311 312 313 325 342 254 282 210 193 221 270 278 278 298 312 357 354 175 291 359 11 49 340 268 196 228 87 219 226 163 161 171 177 181 183 181
346 342 337 334 331 325 318 317 310 308 298 299 342 36 274 314 216 224 218 240 304 261 294 300 10 270 356 53 8 356 260 225 302 193 156 134 218 197 176 173 176 181 186 181 175
343 340 336 334 331 324 320 320 317 318 13 330 291 356 279 244 215 218 213 245 269 242 340 6 43 5 9 70 226 259 304 271 224 238 149 120 209 197 182 174 179 185 183 169 169
343 340 335 331 329 324 330 346 8 2 19 205 208 261 285 304 139 183 207 210 21 39 205 296 57 236 236 189 219 247 290 331 327 234 122 209 188 198 175 172 177 182 170 168 171
340 338 334 328 326 322 330 8 241 319 302 254 251 247 260 271 287 231 192 143 136 241 343 1 248 247 243 274 211 28 355 314 320 354 25 230 289 197 164 184 178 174 168 161 140
338 337 335 329 321 341 320 291 330 323 342 290 223 215 225 170 220 224 146 168 191 249 236 183 249 320 254 256 44 326 262 303 258 342 11 61 331 340 325 145 180 173 159 164 162
337 336 337 336 340 333 283 333 349 341 40 273 219 242 191 171 261 207 191 150 210 223 238 231 260 242 255 178 141 258 203 255 42 59 287 56 285 322 317 185 176 152 163 175 158
336 333 333 332 313 302 324 338 340 62 11 231 209 198 156 165 163 256 171 163 211 241 68 259 304 301 198 207 142 236 303 306 19 67 43 347 62 275 345 60 60 182 188 169 156
330 330 325 320 301 286 334 334 10 50 254 301 163 149 107 209 237 5 143 142 206 247 248 259 264 250 210 200 216 189 49 30 47 69 15 242 123 283 212 209 168 170 124 146 149
328 325 306 283 247 336 339 23 56 151 318 300 180 160 172 189 225 183 185 180 178 92 307 315 293 293 216 34 3 73 57 358 357 20 219 33 90 241 269 212 174 147 202 153 154
331 323 291 267 264 301 1 54 143 226 262 297 312 357 206 160 228 196 175 196 268 113 35 212 319 197 249 169 185 199 144 151 198 204 252 324 243 267 314 308 162 174 156 147 148
336 320 287 291 205 209 77 97 207 214 311 350 318 195 223 226 185 170 193 195 194 165 171 179 271 328 300 211 135 231 141 191 120 3 54 276 332 342 26 23 32 33 52 151 145
334 329 261 164 159 128 81 226 234 246 4 12 324 27 251 213 164 162 191 197 207 195 163 226 282 261 293 108 95 154 173 46 8 123 283 318 206 236 27 325 83 48 59 53 33
341 11 315 160 141 54 169 235 287 305 24 16 315 329 309 5 208 195 210 234 193 209 168 155 133 274 21 104 170 320 307 60 119 134 164 183 270 301 184 146 113 172 103 93 54
351 37 158 159 60 162 200 227 336 303 47 281 245 237 235 336 358 17 223 200 202 191 173 196 167 183 220 280 196 177 210 141 125 266 179 150 262 310 231 179 184 189 166 159 145
355 276 174 191 162 272 282 291 267 276 277 279 330 302 357 7 38 29 355 323 18 186 164 169 224 272 344 353 1 18 298 146 100 78 199 136 239 288 250 172 175 165 195 229 86
40 12 328 39 146 342 321 267 266 274 259 239 258 288 4 45 38 316 349 324 2 63 58 99 120 162 184 192 205 355 340 80 125 115 183 203 150 229 234 195 282 296 277 24 64
115 290 259 305 300 259 193 288 315 318 276 223 71 89 26 353 28 7 359 335 7 350 32 93 109 120 160 144 100 249 343 332 275 210 166 251 163 187 196 216 293 342 328 336 336
48 36 340 276 300 297 133 247 246 263 279 309 49 50 74 95 135 290 10 27 332 334 42 349 152 96 9 32 51 350 338 321 307 4 87 136 83 93 61 98 132 270 317 311 308
357 336 109 294 338 22 355 324 295 286 282 332 315 107 74 102 259 236 210 267 322 78 30 50 91 69 293 352 36 2 294 12 65 26 149 193 117 139 163 172 194 181 202 218 274
Height
814 812 810 808 807 805 802 798 796 793 789 786 783 780 776 773 768 766 765 763 761 761 760 758 757 756 759 759 754 757 790 799 789 786 779 761 764 758 756 768 766 767 773 782 789
815 813 811 808 807 804 801 798 795 792 788 785 782 779 775 770 767 765 762 761 759 759 758 760 758 756 762 762 761 777 804 792 769 764 772 758 759 762 771 773 778 775 778 785 791
815 812 811 810 806 804 800 797 794 790 787 784 781 778 774 770 768 761 760 759 758 757 757 759 759 760 766 759 765 777 795 773 765 758 758 762 762 759 772 786 773 779 780 785 790
816 813 810 808 805 802 798 795 791 789 787 783 780 777 773 771 787 760 760 759 757 757 757 758 759 766 773 774 756 776 765 762 753 749 751 762 760 766 762 767 763 766 773 781 788
816 812 809 807 804 801 797 793 790 787 785 783 780 777 774 773 768 760 760 761 759 757 759 759 762 764 774 768 761 772 756 753 748 743 744 752 758 761 764 761 767 771 777 783 787
816 812 809 805 803 799 795 791 788 785 783 781 779 778 775 782 760 760 760 761 759 758 757 757 758 755 763 766 767 755 752 752 743 747 745 756 759 757 765 761 767 770 775 780 784
815 812 808 804 801 796 792 789 786 783 782 780 778 776 776 769 759 759 761 760 759 759 756 754 754 758 761 767 751 750 763 760 754 750 755 749 771 770 757 761 767 771 772 775 779
815 812 807 803 798 793 790 787 783 781 780 778 776 775 773 758 759 759 761 759 758 756 756 754 753 755 761 756 762 772 776 795 762 753 748 755 793 763 756 761 769 769 770 773 776
814 810 806 802 797 792 786 783 780 778 777 776 776 775 773 756 757 756 759 758 757 756 755 755 756 764 764 782 801 796 809 796 776 746 750 760 781 761 757 759 767 767 767 771 775
813 809 804 800 796 791 785 780 775 774 775 775 776 780 762 757 752 753 756 757 757 757 759 760 771 784 788 802 829 810 799 786 784 759 755 769 771 757 756 759 763 765 766 770 773
811 807 803 799 795 790 783 777 779 780 776 775 772 771 758 752 751 752 754 756 756 762 782 771 793 805 789 789 784 785 785 789 769 752 759 765 765 759 759 760 765 766 767 769 770
810 807 802 797 793 790 786 786 783 786 787 765 763 762 755 755 761 750 752 763 766 785 775 788 801 776 770 771 775 772 784 788 770 754 764 765 765 760 756 755 754 761 766 768 772
810 805 799 794 789 788 787 785 782 781 790 768 755 754 752 751 758 755 752 758 771 782 783 797 778 761 769 768 776 782 785 784 788 768 765 772 788 773 759 752 752 755 758 762 766
808 803 799 791 791 788 785 783 780 779 813 782 761 746 745 748 759 742 746 756 769 781 777 782 759 765 769 770 772 790 768 771 776 792 813 780 832 790 775 763 759 762 762 761 766
806 802 798 795 792 790 786 781 778 779 835 754 749 729 733 753 747 745 740 752 772 771 772 782 767 771 771 767 761 783 761 767 770 796 800 801 821 801 779 779 775 768 762 762 766
803 800 796 794 792 787 784 781 780 817 828 764 739 747 755 752 749 743 747 745 750 766 768 772 751 754 759 751 752 752 773 786 799 811 840 810 816 814 791 774 771 767 765 765 769
798 795 793 793 789 786 785 784 821 831 772 765 756 749 756 763 760 756 762 771 782 796 798 775 767 751 742 761 761 767 807 849 843 849 848 805 816 808 776 764 756 766 767 764 766
793 789 787 786 786 787 786 804 822 793 785 756 752 753 768 759 761 759 769 777 770 779 799 804 807 762 745 762 778 781 801 846 850 856 838 805 820 801 770 759 748 748 754 761 766
789 785 783 781 782 787 796 824 814 790 762 767 762 768 769 759 757 764 771 776 766 770 800 805 798 751 750 748 759 779 802 788 822 825 839 826 796 780 773 779 774 769 767 767 768
788 785 781 781 782 786 806 815 796 768 765 767 780 770 775 764 772 774 775 758 762 754 758 778 804 762 748 739 750 766 767 805 830 836 838 836 812 818 800 790 775 783 783 783 782
789 790 777 781 784 796 816 809 782 765 766 776 775 772 768 768 764 775 766 749 744 748 754 772 786 775 757 768 775 777 786 798 810 828 846 852 837 805 800 790 785 788 780 782 783
795 798 780 782 801 806 807 786 777 770 764 768 759 758 763 760 762 763 766 747 730 734 763 762 786 803 773 753 748 763 774 794 827 821 826 834 837 801 794 787 779 771 770 765 771
808 799 783 783 808 808 793 784 775 774 769 768 768 755 753 759 770 763 757 735 727 732 751 756 788 809 797 781 764 765 767 776 800 810 814 832 837 801 796 784 772 765 757 755 768
808 805 793 788 795 793 795 789 784 761 761 759 761 751 757 762 759 765 761 740 732 733 739 745 783 789 814 795 782 780 773 770 792 813 811 813 824 816 803 790 787 781 773 777 771
806 805 801 808 797 794 791 787 783 780 757 749 758 758 765 767 770 775 764 758 743 744 740 755 783 773 778 769 768 771 771 772 781 782 795 788 799 798 799 806 800 797 788 786 783
810 812 808 805 797 792 790 784 779 774 767 763 758 756 764 782 779 778 772 769 768 757 758 763 783 770 784 766 771 777 769 765 767 766 778 785 792 798 809 804 801 798 792 788 789
811 810 810 804 801 798 795 787 770 762 756 751 754 763 772 769 763 762 762 763 759 760 768 772 782 795 795 775 779 798 773 769 779 777 776 789 791 801 806 802 797 793 789 782 781